Location: Bats
(43.6587°N, 0.4584°W)
Time: 09:58:46
(UTC+00:00)

Cosmos 1633 Rocket - Pass Details

Date: 12 January 2026
Orbit: 600 x 616 km, 82.5° (Epoch: 17 February)

Event Time Altitude Azimuth Distance (km) Brightness Sun altitude
Rises 18:17:40 0° 346° (NNW) 2,860 6.5 -16.0°
Reaches altitude 10° 18:19:55 10° 342° (NNW) 1,952 5.7 -16.4°
Maximum altitude 18:24:06 51° 266° (W) 760 3.9 -17.1°
Drops below altitude 10° 18:28:15 10° 191° (S) 1,936 5.9 -17.8°
Sets 18:30:29 0° 186° (S) 2,835 6.7 -18.2°
